Location: Azul
(36.7830°S, 59.8500°W)
Time: 02:49:52
(UTC-03:00)

CAS-4A - Pass Details

Date: 30 October 2021
Orbit: 529 x 539 km, 43.0° (Epoch: 04 December)

Event Time Altitude Azimuth Distance (km) Brightness Sun altitude
Exits shadow 03:59:31 21° 226° (SW) 1,235 ? -21.4°
Maximum altitude 04:01:47 39° 169° (S) 810 ? -21.1°
Drops below altitude 10° 04:05:39 10° 98° (E) 1,789 ? -20.5°
Sets 04:07:59 0° 90° (E) 2,678 ? -20.1°
